Theta_e
344 345 347 345 346 348 348 348 349 350 350 350 351 351 350 350 350 350 349 350 351 350 350 349 349 348 347 347 348 348 347 346 345 343 343 342 341 341 341 341 341 341 341 342 343 343 343 342 343 345 347 347 346 348 348 348 348 347 346 346 346 346 344 343 342 342 342 343 344 345 344 345 344 344 343 343 343 343 342 343 344 341 344 345 347
343 345 346 349 346 348 347 349 349 349 350 350 350 350 349 349 349 349 349 349 349 350 349 349 348 348 347 347 347 347 346 346 345 343 341 341 340 340 340 339 340 340 340 340 340 341 341 342 343 345 347 347 347 347 347 346 346 345 345 345 345 344 343 342 341 341 341 341 341 341 341 342 343 342 343 342 342 341 340 341 341 340 341 344 345
345 345 346 348 346 346 347 348 349 349 350 350 351 350 350 350 349 349 349 349 349 349 349 348 348 348 348 346 346 346 347 346 345 344 340 340 340 339 339 339 339 338 340 340 340 340 341 343 344 344 345 346 346 346 346 345 345 344 344 343 343 343 342 341 340 340 340 341 341 340 340 340 341 341 342 340 340 340 338 339 340 340 339 341 341
344 345 346 346 344 346 347 348 348 348 350 350 350 350 350 349 350 350 349 348 349 349 348 348 347 347 346 346 346 346 346 345 345 344 340 340 339 339 338 338 338 339 338 340 339 339 340 342 343 344 344 344 344 344 344 344 343 343 342 342 342 341 340 339 339 339 339 340 340 338 338 337 337 340 341 341 340 339 337 338 338 339 340 339 339
344 346 347 347 348 346 347 346 347 348 350 350 350 350 350 349 349 349 348 348 349 348 348 348 347 346 346 345 346 346 346 345 345 344 340 339 339 338 338 338 338 338 338 339 338 338 340 342 344 344 344 343 343 343 343 342 341 341 342 341 341 339 338 338 338 338 338 338 338 336 336 336 336 337 339 340 339 337 337 337 337 338 338 338 339
345 347 347 346 347 348 344 345 347 347 349 350 350 349 349 349 348 348 348 348 348 347 347 347 347 346 346 346 346 345 345 345 345 344 341 339 339 338 338 338 338 338 338 338 338 338 340 342 343 346 345 344 343 343 343 342 341 342 341 341 340 339 337 337 337 337 338 337 336 335 334 335 334 335 339 339 338 336 336 336 337 338 338 338 338
345 347 347 347 348 347 343 346 348 348 349 349 350 349 349 348 348 348 347 347 347 346 346 346 346 346 346 346 346 345 344 344 344 344 342 339 338 338 337 337 337 337 338 338 339 339 340 342 345 345 345 343 343 343 342 341 341 341 340 339 339 338 337 336 336 337 335 334 334 334 333 332 333 334 338 338 337 337 336 337 336 338 338 337 337
347 347 347 348 349 345 342 346 347 348 349 349 349 348 348 348 348 347 347 346 346 346 346 346 346 346 346 345 345 344 344 344 343 342 340 339 338 337 337 336 337 337 337 337 339 340 340 340 341 341 342 342 341 341 341 340 339 340 339 338 337 336 336 336 335 335 335 331 332 333 333 333 333 332 336 337 337 335 336 336 336 336 337 337 335
346 347 348 349 349 343 343 346 347 348 349 349 348 348 347 347 347 347 346 346 346 346 346 346 346 346 345 345 345 344 343 343 343 341 339 338 338 337 337 336 337 336 337 337 338 340 341 341 341 340 341 342 341 340 340 340 340 339 336 336 336 336 335 335 335 334 332 332 332 332 333 332 332 333 335 337 336 337 335 334 334 336 336 335 335
347 349 349 349 350 341 344 344 347 347 348 348 348 347 347 346 346 346 346 346 346 346 346 347 346 346 345 345 345 344 342 342 341 341 338 336 337 337 336 336 336 337 337 337 340 340 342 342 342 342 341 342 341 339 339 338 339 338 337 337 336 335 334 333 334 331 330 331 332 333 333 333 332 332 335 335 336 335 335 333 334 334 334 334 334
346 348 349 348 351 341 345 346 347 347 347 348 348 347 346 346 346 347 347 347 346 346 347 346 346 346 345 345 344 343 342 342 340 339 337 337 337 337 336 336 335 336 336 337 339 339 340 342 342 342 342 341 339 338 338 338 338 337 336 335 334 333 332 334 332 332 332 331 331 331 332 334 332 332 336 335 335 335 334 334 334 334 333 334 333
345 348 349 349 346 339 345 346 346 346 347 347 347 347 347 347 347 347 347 347 346 346 346 346 346 346 345 344 343 342 341 341 338 336 335 336 337 337 336 336 335 335 336 337 339 341 342 342 341 340 339 338 337 337 336 336 336 335 334 333 332 331 330 332 331 331 332 332 332 331 330 329 331 331 334 336 335 334 333 333 333 334 334 333 334
346 347 348 348 350 338 341 344 345 348 347 346 347 347 347 347 348 348 348 347 347 346 346 346 346 346 345 344 343 342 341 340 338 334 333 334 336 337 336 336 335 335 336 337 337 339 340 339 338 338 338 337 336 336 336 335 334 333 332 331 330 329 329 331 332 332 332 334 332 331 331 331 332 334 335 335 335 335 336 338 337 335 334 334 335
346 347 347 347 349 342 335 339 342 344 347 347 346 346 347 347 347 347 347 347 347 346 346 346 346 345 344 343 342 342 340 340 338 334 333 333 336 336 336 336 336 335 334 336 336 336 336 336 335 334 334 334 334 334 333 332 331 330 329 329 328 328 329 330 332 333 335 336 336 335 335 335 336 335 335 337 339 338 337 337 338 337 337 338 338
345 347 347 347 347 347 337 337 339 339 343 345 345 346 346 346 347 347 347 346 346 346 346 345 345 345 344 343 342 341 341 340 338 335 333 334 336 336 336 335 335 334 334 334 333 334 332 332 331 331 331 332 332 332 331 330 330 329 328 327 327 327 328 330 331 332 333 334 334 335 336 337 337 338 338 338 339 338 338 337 338 337 337 337 336
346 346 347 345 346 347 344 339 334 335 339 343 344 345 346 346 346 346 346 347 346 346 345 345 345 344 344 343 342 342 341 340 338 335 333 334 336 336 336 335 334 334 334 334 333 331 329 328 328 327 328 330 330 330 330 329 329 328 327 326 326 327 325 326 330 330 331 332 333 334 334 334 334 337 337 338 338 337 336 336 337 337 336 335 336
346 347 346 343 344 344 344 343 340 331 332 335 338 340 343 345 346 346 345 346 346 346 345 344 344 344 344 343 342 342 340 339 337 335 333 333 333 333 333 334 334 334 334 333 332 329 327 326 324 325 327 328 329 329 328 328 327 326 325 325 325 325 324 324 328 328 329 329 329 330 330 333 334 336 337 338 338 338 337 337 336 335 335 336 335
344 345 344 344 345 345 344 345 344 343 344 336 333 335 340 343 343 344 344 345 345 345 345 345 344 344 343 341 340 340 340 338 337 335 333 331 331 331 330 332 333 333 332 331 328 327 325 324 325 326 326 327 327 327 327 326 325 324 324 324 325 324 324 324 328 328 328 328 328 328 329 330 332 333 334 335 335 334 334 334 333 333 334 333 335
339 339 340 340 341 344 343 344 344 344 344 344 345 342 334 339 340 341 341 343 343 343 343 342 341 342 340 338 337 335 334 334 334 334 334 332 330 329 329 329 331 331 329 328 328 327 325 325 325 325 326 326 326 326 325 324 324 323 323 323 321 321 321 325 327 326 326 326 326 327 327 330 330 330 332 332 333 331 329 331 331 331 332 332 333
335 336 333 333 336 339 340 341 343 343 344 344 344 346 334 331 335 337 338 341 340 340 339 337 335 335 335 333 331 334 330 332 327 332 330 332 329 328 329 327 329 330 329 328 328 327 326 326 325 325 325 325 325 324 323 322 322 321 321 322 320 320 327 326 326 326 325 324 324 325 328 329 329 331 330 331 331 331 330 329 329 329 329 329 329
330 333 332 330 332 336 336 339 341 342 344 344 344 345 342 329 331 330 332 334 336 336 335 328 325 324 327 324 329 339 336 335 334 333 325 332 324 324 327 326 325 325 325 325 326 325 324 324 324 323 322 321 319 318 318 320 319 319 319 318 318 324 325 324 324 324 325 324 325 327 329 331 330 333 333 332 331 331 332 331 330 330 330 329 330
330 330 331 330 329 330 333 338 341 341 341 343 343 343 342 336 342 342 343 337 330 328 335 340 333 338 323 334 341 339 338 337 334 331 332 332 329 323 325 325 324 324 324 324 325 324 323 323 323 322 320 319 318 319 317 315 315 316 316 315 320 321 322 323 323 324 324 324 325 327 329 330 331 333 332 332 331 331 331 330 331 331 331 330 330
332 332 331 329 331 332 333 336 340 340 342 340 342 343 342 342 342 341 342 334 337 341 343 341 342 341 341 341 339 339 338 336 335 334 334 324 329 323 325 325 325 325 325 325 324 324 322 322 321 319 318 317 318 318 318 318 316 313 313 316 317 318 319 320 321 322 321 322 325 326 328 328 330 332 332 332 331 330 330 330 329 329 330 330 329
332 335 332 328 328 331 333 335 337 338 340 339 339 342 341 342 342 343 342 341 341 342 343 342 341 341 341 340 339 339 338 336 327 325 327 333 328 322 323 322 323 323 323 323 322 321 320 319 318 316 316 317 317 316 316 315 315 314 314 313 313 314 316 317 319 319 320 319 321 324 327 328 329 330 331 331 330 329 329 329 330 329 329 328 328
332 331 330 327 326 326 328 332 334 337 338 333 333 339 341 343 343 342 341 341 341 341 342 342 340 340 340 339 339 338 338 334 333 333 333 333 329 328 325 324 324 323 320 321 318 317 316 317 316 316 316 316 316 315 314 313 311 310 310 309 309 311 312 314 315 317 318 317 317 321 324 325 326 328 329 329 329 328 328 327 327 327 327 326 325
324 327 330 328 326 325 325 329 332 335 336 334 332 337 340 341 342 342 341 342 341 341 340 339 340 340 340 338 339 338 337 335 335 334 333 332 330 327 325 322 322 322 321 320 319 319 318 318 317 316 314 314 313 312 311 310 308 307 306 306 306 307 308 309 311 314 315 315 315 317 321 323 324 326 327 326 326 326 325 326 325 324 324 324 323
323 327 328 327 325 324 325 327 331 333 333 333 332 334 339 340 342 343 341 338 340 340 339 339 339 339 338 337 337 336 336 335 334 333 332 332 329 329 325 322 321 321 322 322 321 320 319 317 315 313 312 311 309 309 307 307 306 305 304 303 303 304 305 305 307 309 312 313 312 313 318 320 322 323 323 323 324 325 325 324 325 325 324 323 323
323 325 324 324 325 325 325 326 329 330 333 333 333 334 336 336 339 340 341 338 338 338 338 338 339 338 337 337 336 337 335 334 334 333 332 332 329 328 327 323 323 323 323 323 321 320 318 316 314 312 311 310 307 306 305 304 304 303 302 302 301 301 301 302 303 304 308 310 311 309 315 317 318 319 321 321 321 322 322 323 324 325 324 323 322
324 325 324 324 325 324 324 325 327 328 330 332 332 335 336 335 338 338 339 334 339 338 339 339 338 338 337 337 337 336 335 334 333 333 333 331 330 327 327 325 324 323 323 322 322 319 317 315 313 312 311 309 307 305 304 303 302 302 301 300 299 299 300 300 300 301 303 307 308 306 311 315 315 317 318 319 320 320 320 321 322 323 322 321 322
323 325 323 324 324 323 323 324 326 328 329 329 332 334 334 333 335 337 339 336 338 337 337 337 338 338 337 337 337 336 335 333 333 334 332 330 330 328 325 324 324 323 323 322 321 319 316 315 314 312 310 308 306 304 303 301 301 301 299 299 298 298 298 298 298 299 300 302 305 305 304 310 313 315 315 316 319 319 320 320 320 321 321 320 320
321 322 322 323 322 321 322 322 323 325 326 327 329 332 334 333 333 336 337 335 338 339 337 336 336 337 336 336 336 336 336 335 333 332 331 330 328 327 327 324 323 323 322 321 320 318 315 315 314 311 310 307 304 303 300 299 299 298 298 298 297 298 297 297 297 298 297 298 300 302 303 303 308 311 313 314 315 316 317 318 318 319 319 319 320
318 319 320 321 320 319 320 321 321 323 324 324 327 330 333 334 333 333 335 337 336 336 337 336 334 336 336 335 335 335 334 335 333 331 330 328 327 325 325 324 323 322 321 320 318 317 316 316 314 311 309 306 302 301 300 298 297 297 298 297 297 297 296 297 297 297 297 297 297 298 300 301 301 304 308 311 313 314 315 315 315 316 316 317 317
318 319 318 318 318 318 318 319 319 320 321 322 325 328 331 332 333 331 332 334 333 333 333 334 334 334 335 334 333 334 334 334 333 331 328 328 326 324 323 323 322 321 319 319 318 317 314 312 310 308 305 304 301 299 299 297 296 296 296 296 296 296 296 296 296 296 296 296 296 296 297 298 299 299 300 304 309 311 313 313 314 314 315 315 316
317 317 317 316 317 318 318 318 319 319 320 321 322 326 329 330 331 330 328 327 329 331 331 331 330 331 332 333 332 331 332 332 332 331 329 326 324 323 321 320 320 321 318 317 314 313 310 308 306 304 302 301 298 297 296 295 295 295 296 296 295 295 295 295 295 295 295 295 295 296 295 295 295 296 297 297 300 305 309 311 312 312 312 312 313
316 316 316 316 316 316 316 316 318 319 320 321 321 325 327 328 329 329 327 327 326 327 328 328 328 328 328 329 331 329 330 330 330 329 328 325 322 320 321 320 319 318 316 316 315 312 309 307 304 302 301 299 298 296 295 295 295 294 295 295 294 295 295 294 295 295 294 294 294 295 295 294 293 294 295 294 295 297 302 306 309 310 310 311 312
315 316 316 316 315 316 316 316 317 318 320 320 322 324 325 327 326 320 325 328 326 323 322 326 326 327 327 325 327 328 329 328 328 328 324 322 318 315 315 315 315 315 315 314 313 311 310 307 305 302 298 298 296 295 295 293 294 294 294 294 294 294 293 294 294 293 294 294 293 293 293 293 293 293 293 292 292 292 295 299 302 305 307 309 310
314 315 315 315 315 315 314 315 316 317 318 319 320 321 321 321 320 318 319 322 324 321 318 319 321 323 322 322 324 325 327 326 325 325 323 317 315 313 312 313 314 314 313 314 314 312 308 306 304 304 301 297 295 293 292 292 293 293 293 294 294 294 293 293 293 293 294 293 293 292 292 292 292 292 292 292 292 291 291 294 295 298 301 305 308
314 315 315 315 314 315 315 316 317 318 318 318 316 316 317 315 313 313 312 315 317 317 316 318 321 321 321 319 319 321 323 323 321 320 319 316 313 310 310 312 313 312 313 312 310 308 306 304 301 299 298 295 293 292 291 292 293 293 292 292 292 292 292 293 293 292 292 292 292 292 291 292 292 292 292 292 292 291 292 291 292 292 294 300 305
313 314 315 314 315 314 315 315 316 316 316 315 311 310 311 310 310 309 309 310 311 312 314 316 318 317 318 319 318 317 318 321 320 316 315 311 310 310 308 310 311 310 310 310 307 305 304 302 298 294 295 295 293 293 292 293 292 292 291 290 291 291 292 292 292 292 292 292 291 291 292 291 291 291 291 291 291 291 291 291 291 291 291 294 298
312 313 313 314 313 314 315 315 315 314 314 314 311 309 309 309 308 307 308 309 310 310 311 313 311 312 313 316 317 317 316 317 315 314 311 310 308 308 307 308 309 308 308 308 305 303 300 297 295 293 292 292 292 292 292 292 291 291 290 290 290 291 291 291 291 291 291 292 291 291 290 291 291 290 291 291 291 290 290 290 290 290 290 291 292
311 312 312 313 313 312 313 313 313 312 312 310 309 308 308 308 309 311 312 308 307 308 309 308 308 309 309 312 315 315 315 312 310 308 309 307 309 308 307 308 308 307 307 307 305 304 301 298 295 293 292 291 291 292 293 292 290 288 289 289 289 290 290 290 289 290 290 291 291 290 290 290 290 290 290 290 290 289 289 289 289 289 289 290 290
309 311 311 312 312 312 312 313 312 310 310 310 310 311 311 310 310 311 307 304 304 306 307 305 304 304 306 307 310 313 313 311 308 307 306 305 303 304 304 305 306 306 308 307 303 300 298 295 293 291 293 292 291 293 293 293 290 287 286 286 287 288 289 288 288 288 290 290 290 290 290 289 289 289 289 289 289 289 288 288 289 288 288 289 289
310 310 312 312 312 311 312 313 311 309 310 311 310 310 311 312 312 308 307 304 303 304 306 303 303 303 304 305 306 308 309 308 308 306 303 302 303 302 303 304 304 305 304 303 300 297 295 294 293 292 291 292 292 294 294 296 291 290 290 287 284 285 286 286 287 287 288 289 289 289 289 288 288 289 289 289 288 288 288 288 288 288 288 288 288
309 310 311 311 311 311 311 312 310 310 309 309 309 310 307 305 304 304 303 305 303 298 299 298 298 299 300 302 303 304 305 306 306 304 303 301 302 302 302 302 304 303 302 301 298 296 295 295 295 295 294 291 291 293 297 296 294 291 287 291 288 289 284 285 285 285 287 287 288 287 288 288 288 289 289 288 287 287 287 287 287 287 287 287 287
308 309 310 310 311 311 311 311 310 310 309 308 308 303 301 300 299 299 301 299 299 298 298 297 297 298 297 298 300 301 302 303 303 301 299 300 301 302 301 301 302 303 303 301 299 296 296 297 297 296 295 294 291 292 293 295 295 297 296 291 289 288 289 286 284 283 286 286 286 287 287 287 288 288 288 287 288 287 287 287 287 287 287 286 286
308 309 311 311 311 311 311 311 310 309 308 308 305 303 301 299 298 300 301 300 299 298 299 299 297 296 298 298 297 298 299 300 301 301 300 300 299 299 300 300 302 302 302 301 300 298 298 299 298 298 297 296 294 293 292 295 295 296 295 293 298 294 288 285 286 282 284 286 286 285 286 287 287 287 288 288 288 287 287 287 287 286 286 286 286
308 310 310 310 311 311 311 311 309 308 308 306 303 302 302 301 302 304 304 302 301 302 305 304 302 301 300 297 296 295 296 297 297 298 299 298 298 298 300 302 302 302 301 301 300 300 300 301 300 299 298 297 297 294 294 293 292 292 293 294 294 294 291 286 285 284 280 283 285 285 285 286 287 287 287 287 287 287 287 287 287 286 286 286 286
308 309 309 310 310 310 311 310 309 308 307 304 302 303 303 302 303 306 306 305 305 305 305 306 304 300 298 296 294 293 293 294 295 296 295 295 296 297 298 299 300 301 301 302 302 303 303 302 301 301 301 299 298 297 296 293 290 292 292 292 292 295 293 294 292 287 287 282 282 284 285 285 286 287 287 287 287 287 287 286 286 286 285 285 285
307 308 308 309 309 310 310 309 308 307 306 303 302 303 304 304 305 307 306 306 308 307 305 301 299 297 295 293 293 292 292 292 293 293 294 294 294 295 296 297 298 298 300 302 303 303 302 301 300 301 300 299 299 301 297 293 293 293 290 291 292 292 292 293 293 292 287 285 283 281 282 284 285 286 286 287 287 287 287 286 286 286 285 285 285
307 309 309 309 309 309 309 308 307 306 303 302 301 302 303 304 304 306 306 305 302 299 300 298 296 295 294 293 293 291 291 290 291 292 292 292 292 293 294 296 297 299 299 302 302 301 301 301 300 301 300 299 300 300 298 295 296 294 293 292 291 290 289 288 289 289 289 290 285 283 284 282 282 284 286 286 286 286 286 286 285 285 285 285 285
306 308 308 308 308 308 308 307 307 305 303 302 302 301 303 304 305 305 306 304 300 299 298 296 295 293 293 292 291 292 291 290 290 290 290 291 291 291 293 296 298 298 299 300 300 300 300 299 299 299 299 299 298 299 298 297 296 294 294 292 291 290 290 288 288 288 288 287 287 285 285 285 285 284 285 286 287 286 286 286 285 285 285 285 285
Wind_Speed
6 5 5 1 2 5 5 5 8 10 11 11 11 11 11 11 12 12 12 12 12 13 14 14 15 14 14 13 13 14 14 15 15 16 16 16 16 16 15 15 14 14 14 14 15 15 16 16 15 16 17 17 18 20 20 20 20 20 19 19 19 18 18 17 17 17 19 21 21 21 21 21 21 20 20 21 20 20 18 17 14 15 14 17 21
10 7 4 4 1 4 2 6 9 10 11 12 12 12 11 11 12 12 12 12 13 14 14 14 14 14 13 13 13 13 14 14 16 16 15 16 16 16 16 16 15 15 14 15 15 15 15 15 16 16 18 19 19 19 20 21 20 19 19 18 18 18 17 17 17 16 16 17 19 21 21 23 22 22 21 21 21 21 19 19 18 14 13 18 20
8 7 5 5 2 0 3 4 6 9 11 12 13 12 11 12 12 12 12 13 13 14 14 14 14 13 12 12 12 13 13 15 16 16 16 16 17 16 16 16 15 15 15 16 16 16 15 15 16 16 17 18 19 20 20 20 19 19 19 19 19 19 18 17 17 16 14 11 12 16 18 22 22 22 22 21 21 21 20 20 20 18 14 21 19
8 6 6 5 3 3 4 4 3 8 8 11 11 11 12 11 12 13 13 13 14 14 14 13 13 13 12 12 12 12 13 15 17 17 16 17 17 16 16 16 17 16 16 16 16 16 16 16 16 17 17 18 18 19 19 19 19 19 19 19 19 19 18 17 17 15 13 11 11 13 12 13 17 22 22 22 22 22 20 21 21 22 22 21 21
8 7 7 7 6 3 2 2 4 8 10 11 11 12 12 12 12 13 13 14 14 14 13 13 13 13 12 12 12 13 14 16 17 17 16 16 17 17 16 16 16 16 16 16 16 16 17 17 17 17 18 18 19 19 19 19 18 19 19 19 18 18 17 16 14 13 12 12 12 13 12 14 13 21 21 22 22 21 21 22 21 21 20 22 23
8 8 8 8 8 8 1 1 6 10 10 10 10 11 12 12 12 12 13 13 14 13 13 13 13 13 12 12 12 13 15 16 17 17 17 16 17 17 16 15 16 17 16 17 17 17 17 16 17 18 19 19 19 19 19 19 19 19 19 18 18 17 17 15 12 9 8 10 13 11 13 13 14 14 21 21 22 21 22 23 23 22 22 22 21
9 7 8 8 6 8 3 2 7 8 9 10 10 10 11 11 11 11 12 13 13 12 12 12 12 12 12 12 13 14 15 16 17 17 17 17 16 17 16 16 16 17 16 17 17 18 17 18 19 19 20 20 19 19 19 19 19 19 19 18 17 16 15 13 11 9 10 10 10 11 11 14 14 12 20 19 20 22 22 23 23 22 21 21 22
7 7 8 7 7 7 3 2 4 8 9 10 10 10 11 12 11 10 11 11 12 12 12 12 12 12 12 13 14 14 15 16 16 16 16 16 16 16 16 17 16 17 17 17 18 18 16 16 17 19 19 19 19 19 19 19 20 19 18 17 16 15 13 11 9 12 11 11 11 11 11 13 14 12 18 21 21 20 20 22 23 23 22 23 18
8 8 8 8 7 8 4 3 4 9 10 10 10 11 11 11 10 10 11 11 11 11 11 12 12 12 12 13 14 15 15 16 16 16 16 16 16 16 16 16 17 17 17 18 18 18 18 18 18 18 19 19 19 19 20 20 19 18 17 16 15 14 12 11 9 10 13 12 13 12 12 12 14 13 17 20 22 22 21 17 17 21 23 21 20
8 8 8 8 8 7 3 4 5 9 11 11 11 11 11 11 11 10 11 11 11 11 11 12 12 12 13 13 14 15 15 16 16 16 16 16 16 16 17 17 16 16 17 18 19 18 20 20 19 19 20 20 20 19 19 19 18 17 16 16 15 13 11 9 11 12 12 14 15 15 13 13 14 13 17 19 20 21 17 16 16 18 17 19 22
9 8 7 7 8 6 5 5 4 7 10 11 11 12 12 11 11 11 11 11 11 11 11 11 12 12 13 14 14 15 15 16 16 16 16 16 16 16 16 17 17 16 17 17 18 18 19 19 20 20 20 20 19 18 18 18 18 17 17 15 15 13 12 8 14 13 13 14 14 13 13 14 13 12 17 20 20 20 17 17 17 19 20 21 22
8 8 7 6 7 5 5 5 3 7 8 7 10 11 12 11 11 12 12 11 11 12 12 12 12 12 13 14 14 14 15 15 16 16 16 16 16 16 16 17 17 17 17 17 18 19 18 19 20 21 20 18 18 18 18 18 17 16 16 15 14 13 12 9 13 13 13 13 14 13 14 14 15 14 20 19 20 19 18 18 18 20 20 21 20
9 8 7 6 7 5 4 3 2 5 7 7 8 9 11 11 10 11 12 12 12 12 12 11 12 12 13 14 14 14 15 16 16 15 16 16 15 15 15 16 17 17 17 17 17 18 20 19 18 19 19 18 18 18 18 17 17 16 15 14 13 11 10 11 14 14 13 12 11 13 13 12 12 16 17 18 18 18 19 20 19 19 19 19 20
10 9 8 8 7 6 4 2 4 1 5 7 7 8 9 10 10 10 11 11 11 11 12 12 12 12 13 13 14 14 15 16 16 15 15 15 15 15 16 16 16 17 17 17 17 17 18 18 18 18 18 18 18 18 17 17 16 16 15 14 13 10 7 13 15 13 14 14 13 14 13 12 13 17 17 19 19 20 19 20 20 20 20 21 21
10 8 8 7 8 8 5 2 4 2 3 5 5 7 10 9 9 11 10 10 11 11 11 11 11 12 13 13 13 14 15 15 15 15 14 15 15 16 16 16 16 16 17 17 18 17 17 18 18 18 18 18 18 17 17 16 16 15 15 14 13 11 9 12 12 12 12 12 12 15 14 13 18 19 19 20 21 21 21 22 24 23 22 22 23
8 8 8 6 6 7 6 5 5 2 4 6 6 6 7 8 7 8 10 10 11 11 11 11 11 12 13 13 13 14 15 15 15 15 14 14 15 16 16 17 16 17 17 18 18 18 17 18 18 18 18 18 18 17 17 16 16 15 14 14 12 10 11 10 11 12 11 10 12 12 13 13 19 21 20 22 22 21 21 22 23 24 23 22 23
7 7 7 7 6 6 6 7 7 5 4 5 6 4 6 7 7 7 7 8 10 11 11 11 11 13 13 13 12 12 13 14 14 15 15 15 16 16 16 17 17 17 18 18 18 18 19 19 18 18 18 18 18 17 17 16 16 15 14 13 12 12 11 11 11 12 11 12 11 10 11 12 18 22 23 24 23 24 24 22 23 22 23 24 23
5 7 6 7 7 7 7 7 8 7 6 2 2 1 5 5 5 5 8 9 9 10 9 9 11 11 11 11 10 10 12 14 14 15 15 15 15 15 16 17 17 18 18 18 18 19 19 18 18 18 18 18 18 18 17 16 16 15 14 13 10 11 11 12 11 11 12 12 11 11 11 14 19 21 23 24 24 23 23 22 22 22 22 23 23
4 4 4 4 4 6 6 6 7 7 8 6 6 5 3 5 5 4 8 9 9 9 9 9 9 10 12 11 10 10 10 11 12 13 12 12 13 13 15 17 18 18 18 18 19 19 18 18 18 19 18 19 18 18 17 16 15 15 13 10 10 11 12 11 11 11 11 11 12 12 12 16 19 20 21 23 23 22 20 21 21 21 21 21 23
3 4 4 3 4 6 5 4 6 7 6 6 6 7 5 6 4 4 5 9 9 9 10 10 10 10 10 11 11 11 11 11 12 11 11 12 12 13 13 16 17 18 18 18 18 18 18 18 18 18 19 19 19 18 17 16 15 14 12 9 10 10 10 9 13 12 11 12 12 12 12 16 18 19 20 21 21 21 20 21 21 20 20 21 21
2 4 4 3 4 5 5 5 5 6 6 7 7 6 5 6 4 5 6 6 10 10 11 11 10 10 10 10 10 10 10 10 10 11 11 11 11 13 14 15 17 18 18 18 18 18 18 18 18 19 19 19 18 18 17 16 15 14 11 10 11 10 10 11 12 12 12 12 12 12 16 17 18 20 21 21 21 21 21 21 21 21 21 21 22
6 5 5 4 5 4 5 6 6 6 4 5 5 5 5 5 4 4 7 7 9 11 9 9 8 9 9 8 8 8 8 8 9 11 11 12 12 13 14 16 17 17 18 19 19 19 18 18 18 17 16 14 12 10 11 13 14 12 11 11 10 9 10 10 12 12 12 11 11 12 15 19 19 20 21 20 21 21 21 21 21 21 22 22 23
9 7 6 6 4 5 6 6 6 6 7 4 4 6 7 6 6 6 4 7 7 10 10 10 9 9 10 8 7 7 8 9 7 7 9 11 12 13 14 14 15 15 17 18 18 19 18 18 17 16 14 12 9 7 7 7 8 10 10 9 9 9 9 10 10 11 11 11 12 14 16 19 21 21 21 21 22 21 21 22 22 22 23 23 23
11 10 8 4 4 4 5 5 5 5 5 4 4 6 6 6 7 6 6 6 7 7 9 9 8 9 9 7 7 7 8 7 10 14 12 10 9 12 13 14 14 15 16 14 17 16 18 17 14 12 10 7 7 7 7 7 7 7 7 8 8 8 9 9 9 10 10 12 11 15 17 18 19 20 21 22 22 22 21 22 23 23 24 24 23
7 5 5 6 5 4 4 4 5 4 5 3 3 5 6 8 7 7 7 7 8 7 7 8 8 9 8 7 7 8 8 8 9 8 8 9 9 10 10 9 10 11 12 11 10 10 11 9 8 8 8 8 8 8 7 7 7 7 7 7 8 8 9 9 9 10 10 11 13 15 16 18 19 20 20 21 22 22 22 23 23 23 24 23 23
3 6 7 7 6 5 4 4 4 5 4 3 3 3 5 7 8 8 8 6 8 8 7 6 6 8 8 8 8 9 9 8 9 8 8 9 8 8 8 8 9 9 9 10 9 9 8 8 8 8 7 7 8 7 7 7 7 7 7 7 7 8 8 8 8 9 10 10 13 19 16 18 19 19 20 21 21 21 22 21 22 21 20 22 22
5 6 6 5 5 5 5 4 4 4 4 3 3 2 5 5 8 9 9 7 7 8 9 8 8 9 8 8 9 9 9 9 9 8 9 8 8 7 7 8 8 8 8 9 9 9 8 8 7 8 7 8 8 8 8 8 7 8 8 8 7 8 7 7 8 8 9 10 12 19 18 18 19 19 19 19 19 19 20 21 20 20 21 20 21
6 7 5 5 5 7 5 5 4 4 5 5 5 4 4 3 5 6 8 8 6 8 10 10 9 9 9 9 9 10 10 10 10 9 8 9 7 6 6 8 7 7 7 8 8 7 8 9 8 9 9 8 9 8 7 7 7 7 8 7 7 7 7 7 8 8 8 9 10 17 16 17 18 19 18 18 18 18 19 19 20 20 21 21 21
10 9 6 6 6 4 4 5 5 6 6 6 7 7 4 4 4 4 7 7 9 8 8 9 9 9 10 10 10 9 9 9 10 9 8 8 8 7 4 6 7 7 7 7 7 8 8 9 9 8 8 8 8 7 7 7 7 7 7 7 7 8 7 7 7 7 7 8 9 13 18 18 19 19 19 18 18 18 19 19 19 19 19 20 21
12 10 8 7 5 5 6 7 7 7 7 6 7 9 6 3 5 6 5 7 8 6 7 7 8 8 9 10 11 10 10 10 10 9 8 9 9 7 6 6 7 7 7 7 6 7 8 8 8 8 8 8 8 7 7 8 7 7 7 7 7 7 7 6 6 6 7 7 8 10 19 19 19 20 19 19 20 19 19 19 19 19 20 20 20
9 10 9 7 5 5 6 7 7 5 5 7 7 8 9 8 6 5 6 7 8 8 7 7 7 8 8 10 9 10 10 10 9 9 9 9 9 8 6 6 6 6 6 6 6 5 7 7 8 8 8 8 8 7 7 8 7 7 7 7 6 6 6 6 6 6 7 6 7 8 11 19 20 20 20 20 20 20 20 18 19 19 19 19 19
10 11 8 7 6 8 8 8 8 7 6 7 7 8 11 11 8 6 8 8 7 8 8 9 8 6 10 10 9 9 11 10 10 10 9 10 10 9 8 5 5 5 6 7 9 7 7 7 8 7 8 8 9 8 7 7 7 7 6 7 6 6 6 6 6 6 6 6 6 6 7 10 19 21 20 19 19 20 20 19 18 17 17 18 18
8 9 8 8 9 8 8 8 7 7 8 9 8 9 11 12 10 8 6 6 6 6 7 7 8 8 8 9 9 10 10 10 9 10 9 10 9 8 6 7 7 7 7 7 8 7 7 7 8 7 7 8 9 8 7 7 8 7 6 6 6 7 5 5 5 6 6 6 6 6 6 7 9 16 20 19 19 20 20 20 19 19 18 18 18
7 7 8 9 8 5 5 5 6 8 8 8 8 9 9 10 10 8 5 5 5 6 6 5 5 5 7 10 8 8 6 5 9 10 9 7 8 8 9 7 7 5 7 9 9 8 7 8 8 8 8 7 9 8 6 7 7 6 6 6 6 6 5 5 5 5 6 7 6 6 6 6 7 7 8 17 19 19 20 20 20 19 18 18 18
7 8 11 10 9 7 6 5 7 8 8 9 10 10 10 11 6 7 6 6 5 5 5 6 5 6 5 6 8 9 9 6 6 9 9 9 7 5 9 10 9 10 7 7 9 7 8 8 7 9 8 7 9 8 6 7 8 8 6 6 6 5 5 6 6 6 7 6 6 6 6 6 6 5 5 6 12 18 19 20 20 19 19 18 18
11 10 9 9 10 9 8 7 7 8 8 9 9 9 9 7 3 3 4 7 6 5 4 6 6 6 6 6 7 7 9 10 9 9 9 9 7 6 3 5 7 8 9 9 9 10 7 6 7 8 10 8 9 8 6 7 8 8 6 5 5 5 5 5 6 6 5 5 6 6 6 6 6 5 5 6 7 11 18 18 19 20 19 19 18
11 10 11 10 10 10 9 9 9 9 10 7 8 8 4 4 4 3 2 4 4 5 3 2 4 6 5 6 7 6 9 10 10 9 8 8 6 7 7 6 5 5 5 10 9 9 9 8 5 3 7 9 10 10 8 7 8 8 6 6 5 5 5 5 6 5 4 5 6 6 6 6 5 4 5 5 6 7 12 15 17 18 18 18 18
11 11 11 11 10 9 9 9 9 9 9 8 5 4 3 3 2 2 2 2 3 2 3 3 5 5 6 6 7 7 8 9 7 7 6 7 7 7 7 9 9 8 4 4 8 8 8 9 9 4 5 8 10 9 9 7 7 7 6 6 5 5 5 5 4 4 4 5 5 6 5 5 4 5 5 6 6 6 6 9 12 14 18 18 18
10 12 11 10 9 9 8 9 9 10 8 7 4 3 4 4 3 2 2 2 2 2 2 3 2 2 4 6 7 6 7 7 8 7 7 7 8 7 7 8 8 8 9 5 7 8 7 6 9 7 5 5 9 9 10 9 9 7 7 7 6 6 4 4 3 3 4 5 5 5 4 5 4 5 6 6 6 7 7 7 7 7 9 16 16
10 12 12 11 10 9 9 8 9 8 7 7 6 5 4 5 5 2 2 2 3 3 3 2 1 1 3 4 6 6 6 7 7 7 8 8 8 7 8 9 9 8 9 9 9 9 10 10 8 11 10 7 7 8 10 11 10 9 8 7 6 6 5 4 4 4 3 3 4 4 4 4 4 5 6 6 6 7 7 7 6 5 5 8 13
12 13 13 13 12 11 10 11 9 9 8 7 7 7 7 6 4 7 6 4 3 3 3 3 2 2 2 2 4 5 7 8 7 6 8 7 7 8 9 9 9 8 8 10 10 12 12 11 9 7 13 11 7 7 9 12 12 9 7 7 6 5 5 4 4 3 3 3 3 3 3 4 4 5 6 6 7 7 6 6 5 4 4 4 5
14 15 15 14 13 12 12 11 9 9 8 8 7 8 7 7 5 7 4 4 4 5 5 3 2 1 2 1 2 4 8 8 7 7 6 6 7 6 7 8 8 8 7 7 9 9 9 10 10 7 4 11 9 10 10 11 8 10 11 8 6 5 4 4 4 4 4 4 3 3 3 4 4 5 5 6 6 6 6 5 4 4 5 5 5
13 14 14 13 13 12 12 12 11 10 9 10 8 8 7 6 6 5 5 4 1 1 1 2 3 3 3 2 2 2 4 6 8 7 7 6 8 8 8 8 8 8 10 11 9 8 8 11 12 12 8 5 9 9 12 7 8 9 9 10 7 7 5 4 4 4 3 3 3 3 3 4 4 4 4 5 5 5 4 4 4 4 5 5 4
11 12 13 14 12 12 12 12 12 11 10 8 9 6 4 4 4 4 4 3 4 3 3 2 2 2 3 2 3 2 4 5 7 7 7 6 8 9 9 9 8 8 9 12 10 11 10 9 8 10 13 11 9 9 7 4 7 12 10 6 8 6 7 5 5 3 3 3 3 3 2 3 3 3 3 4 4 4 4 3 4 4 5 5 5
12 13 14 13 10 14 13 13 11 12 10 9 9 7 7 6 5 5 5 6 5 4 4 3 2 1 1 3 4 3 4 5 6 7 7 5 6 7 9 9 9 8 9 10 11 11 12 11 12 12 13 13 11 10 6 5 9 4 3 7 4 4 4 8 7 3 2 2 2 2 2 2 2 3 3 3 3 3 3 4 4 4 4 4 4
12 13 12 13 11 11 13 13 11 10 10 11 10 8 8 7 7 7 8 6 6 7 8 8 7 6 6 3 2 2 3 3 5 7 8 6 4 3 5 8 9 8 7 9 9 10 11 11 11 12 12 11 13 12 9 6 6 2 5 5 2 1 8 9 7 4 2 1 1 1 1 1 2 2 3 3 3 3 3 3 3 4 4 4 4
12 10 11 12 12 12 13 13 11 9 10 10 11 9 9 8 10 9 7 7 7 6 5 5 6 6 5 5 4 2 2 3 3 5 7 7 5 5 6 8 9 7 8 8 9 12 11 11 10 11 11 10 10 11 12 9 4 5 3 3 2 2 7 12 7 7 5 4 3 3 2 1 1 2 3 3 3 3 2 2 3 3 3 3 3
10 10 11 11 13 13 13 13 10 10 9 9 11 10 10 8 9 9 8 8 8 8 8 7 5 5 5 5 4 3 2 2 4 3 5 6 6 6 5 5 7 8 9 8 10 11 10 8 10 11 10 10 12 10 10 9 12 7 4 4 1 3 8 1 8 7 5 8 6 3 2 3 3 3 3 4 3 3 3 2 2 1 2 2 2
10 11 11 11 11 11 12 12 12 10 9 11 11 11 9 10 9 8 8 6 6 5 6 5 5 5 5 4 4 4 3 3 2 3 4 6 6 7 7 6 5 6 8 8 8 10 12 12 11 9 10 10 10 8 9 10 10 7 7 4 4 5 5 1 3 1 3 7 5 8 7 4 4 4 4 3 3 2 2 2 2 1 1 1 2
9 10 10 10 11 11 12 13 13 10 9 11 11 11 11 9 9 7 9 7 4 5 5 6 5 5 6 6 5 5 4 3 3 3 4 4 5 5 5 7 8 8 8 8 8 9 9 10 11 10 9 9 9 7 9 9 9 6 7 7 6 5 4 3 4 4 2 4 6 10 9 9 7 6 5 5 4 3 3 2 2 1 1 1 1
9 10 11 11 11 11 12 13 13 10 11 12 13 13 11 10 9 8 8 9 6 7 7 6 6 6 6 6 6 5 5 4 4 3 3 4 5 5 5 6 7 7 8 8 9 10 9 9 8 8 9 10 8 7 7 7 7 8 7 7 8 9 9 8 9 8 6 5 5 7 8 8 6 6 6 5 5 4 3 3 2 2 1 1 0
Wind_Direction
161 158 152 80 186 147 132 149 146 130 119 116 108 109 111 108 107 106 108 108 106 102 98 96 94 90 85 80 74 72 71 70 70 69 69 71 72 74 78 80 80 83 88 87 85 86 86 84 82 81 77 79 79 76 74 71 70 69 69 66 62 60 60 62 61 62 62 63 61 58 58 58 58 57 56 54 53 48 44 37 46 57 53 46 46
147 147 168 149 354 144 134 150 132 125 122 119 114 106 106 111 110 111 111 109 107 104 101 98 95 91 88 80 76 75 73 72 73 72 71 71 73 74 78 82 84 86 89 90 88 87 87 86 85 78 75 74 74 74 73 72 71 70 67 65 63 60 59 57 56 56 60 68 68 63 57 57 57 56 56 55 54 51 47 47 43 53 52 48 46
133 152 160 142 344 292 126 112 132 125 125 118 114 110 111 114 115 113 112 109 105 104 102 99 97 94 87 82 79 76 75 74 73 73 73 73 73 74 77 80 85 89 91 92 91 90 89 88 87 84 77 74 71 71 72 71 70 69 66 63 59 56 53 52 52 50 45 43 66 76 69 59 55 56 55 56 57 54 52 53 50 52 51 48 47
152 151 159 138 297 328 135 118 90 120 122 116 112 112 110 109 112 114 114 108 106 104 102 101 99 99 93 86 80 75 73 72 72 73 74 74 75 74 77 80 86 89 91 92 93 93 94 93 90 87 82 76 75 73 72 72 72 69 66 62 59 57 56 55 53 49 41 42 58 65 60 59 58 57 59 58 58 58 56 55 56 56 54 51 49
162 147 154 156 176 170 133 116 123 144 132 123 120 118 117 117 115 112 110 108 105 103 103 102 102 100 98 89 80 75 71 71 72 73 74 74 76 77 79 82 86 88 90 92 95 96 94 91 90 89 86 81 78 75 74 73 72 71 68 66 61 59 57 54 49 51 49 52 56 62 63 64 61 58 60 61 59 58 58 57 56 55 54 53 51
161 157 157 159 159 150 51 197 143 146 135 129 125 125 121 117 117 115 112 108 104 106 107 106 107 107 100 90 82 75 71 71 72 73 74 76 77 78 81 80 83 86 89 91 93 98 96 94 94 90 85 81 77 75 75 73 73 72 70 65 61 59 57 51 44 44 65 75 67 64 66 65 62 59 57 60 62 59 59 59 57 55 54 53 54
155 161 156 156 160 148 152 231 146 138 132 131 128 125 119 119 115 110 110 111 110 108 107 109 111 108 101 92 84 77 73 71 72 73 74 77 78 80 82 83 83 86 87 90 94 96 97 95 87 83 82 80 78 76 74 75 72 71 68 66 61 61 57 50 39 46 59 66 67 68 65 65 65 63 61 60 63 61 59 59 58 56 54 53 54
160 163 159 157 163 132 192 193 150 144 137 134 135 125 123 122 118 117 113 110 115 116 114 113 112 107 100 92 85 78 75 73 73 75 75 77 79 81 85 86 86 85 88 94 94 91 92 88 85 84 84 84 83 81 80 78 77 73 68 68 66 61 51 38 50 54 56 69 69 67 66 67 67 63 61 61 58 60 61 61 59 57 56 55 52
166 169 159 157 153 138 182 204 169 152 146 142 140 131 127 126 122 120 118 120 115 109 113 115 112 108 100 91 85 80 77 75 74 76 77 77 80 82 82 85 88 90 91 94 96 94 89 90 92 90 89 86 81 80 77 77 76 73 72 69 64 58 49 38 42 74 72 70 70 69 67 67 68 66 60 65 62 60 57 56 62 59 56 54 56
169 168 160 164 155 140 183 199 172 157 149 151 142 136 132 133 136 130 129 125 119 120 116 114 113 107 99 92 86 82 79 77 76 77 79 80 81 83 86 87 88 91 95 94 93 95 94 93 92 91 86 82 78 76 78 79 76 74 71 65 57 49 37 55 80 71 75 74 75 69 59 58 70 67 63 65 66 63 63 59 60 57 59 58 58
177 168 165 156 143 138 170 191 174 161 155 151 146 140 138 140 141 137 135 133 128 125 120 116 113 106 100 94 88 85 82 79 78 79 81 82 84 85 87 89 89 89 94 96 94 92 89 85 83 83 82 79 78 79 81 80 75 72 68 59 52 42 31 16 71 71 71 69 67 75 82 70 69 68 69 66 65 67 63 60 60 60 57 58 57
175 169 163 153 124 152 165 172 194 160 149 149 150 148 144 151 147 142 141 137 136 131 126 121 116 109 103 99 93 90 87 84 83 83 84 84 88 91 90 90 91 93 93 91 89 87 86 81 79 81 83 82 82 84 85 79 73 69 64 59 52 46 29 34 75 77 76 77 73 69 66 65 69 69 68 67 65 66 68 64 61 62 60 57 57
167 172 165 157 164 141 121 67 178 159 145 157 150 157 153 155 153 147 144 141 139 133 127 124 119 113 109 104 98 93 90 88 86 88 89 91 93 94 94 93 94 94 90 89 92 85 80 84 84 81 81 85 87 84 78 76 73 67 61 56 51 46 39 46 77 76 75 71 75 75 75 75 79 75 71 73 71 70 64 57 58 65 63 59 57
167 173 167 172 171 144 138 118 108 99 148 161 157 156 165 159 156 150 147 143 136 132 128 127 123 118 114 108 103 98 94 92 91 91 94 96 97 96 94 93 93 94 95 89 84 85 86 85 84 83 81 83 83 80 79 76 71 66 60 55 45 30 55 76 76 75 70 68 63 62 60 55 58 64 68 65 65 62 61 67 65 61 57 56 59
172 164 162 172 174 165 135 206 133 124 152 167 173 169 170 165 161 153 151 145 135 133 132 128 126 121 116 111 106 101 98 96 97 97 99 100 100 99 98 96 94 94 93 91 92 88 85 85 84 82 81 80 81 81 79 74 69 66 61 54 43 30 38 79 77 72 69 68 68 63 59 61 63 65 66 68 68 68 67 64 62 60 61 62 62
182 161 151 174 176 166 167 165 143 132 257 177 171 177 171 160 163 158 154 147 139 138 136 133 130 126 121 120 112 104 102 101 101 101 100 102 101 100 99 99 98 97 97 96 94 90 89 87 85 84 84 85 85 82 78 73 69 64 59 52 45 32 34 67 76 72 67 67 66 63 68 65 67 65 64 63 64 64 63 60 61 63 60 59 62
165 162 155 160 171 165 171 186 161 144 108 118 142 146 156 158 164 168 155 150 143 143 143 139 135 130 128 125 115 106 105 105 104 102 100 100 99 97 97 97 99 99 99 98 94 91 89 88 87 86 85 86 85 81 77 73 68 63 59 53 47 43 35 64 72 71 69 64 64 62 56 53 53 57 57 58 56 54 52 51 51 50 52 54 57
151 173 147 147 165 162 166 187 172 184 167 115 144 140 160 162 162 178 168 150 147 145 144 139 134 128 126 119 114 110 108 108 106 103 101 99 98 98 98 98 98 98 98 97 96 94 92 90 87 85 84 83 81 78 75 71 68 63 58 55 47 48 45 62 70 71 70 68 66 64 64 59 57 56 56 55 55 54 52 52 53 51 51 54 56
141 154 147 145 160 161 153 162 186 192 178 184 188 166 194 160 170 160 166 147 151 144 134 129 127 124 125 125 116 100 97 101 100 98 95 95 95 95 97 101 101 101 100 99 98 97 95 91 88 87 85 83 80 77 72 68 65 63 58 52 55 56 59 67 69 71 70 71 68 66 65 65 64 62 61 59 58 58 58 58 58 61 58 55 56
137 145 122 133 149 163 151 152 169 192 179 182 184 175 139 124 129 146 155 150 145 133 129 128 122 121 125 128 120 114 111 105 105 100 93 91 91 95 96 100 103 104 102 102 101 100 97 93 91 89 86 83 79 74 71 67 64 60 55 50 52 60 67 68 74 71 72 67 68 69 55 63 67 68 67 67 66 65 66 65 64 62 58 56 55
163 165 129 141 132 140 143 164 157 175 176 180 182 172 146 139 134 111 132 132 133 131 127 118 118 122 129 131 142 136 129 125 121 111 105 97 94 95 99 100 103 103 104 103 102 101 98 96 94 92 89 85 79 72 65 64 60 56 48 48 55 65 63 69 76 74 69 69 64 63 54 55 63 68 67 66 65 63 63 63 63 64 63 62 58
184 173 165 147 150 138 156 166 163 162 164 176 199 190 172 167 160 147 161 139 135 130 136 140 139 139 134 156 154 144 142 134 121 120 112 111 104 103 105 107 107 105 104 104 102 101 100 98 97 95 93 91 93 88 79 66 56 52 47 45 62 60 58 68 77 70 69 62 63 55 60 65 63 67 69 67 64 62 61 61 62 64 64 62 61
190 183 172 171 167 157 174 165 171 159 169 186 213 188 177 187 190 183 172 152 146 153 154 154 160 154 160 164 161 156 148 140 139 113 114 100 109 111 108 109 109 107 106 104 103 102 100 99 97 94 93 93 88 87 82 82 73 57 54 55 60 56 55 58 62 65 55 48 60 45 61 62 61 61 66 69 65 63 61 63 63 63 63 62 63
195 193 172 159 166 172 158 159 159 160 155 169 215 191 181 189 184 173 171 166 164 168 163 169 167 169 170 171 170 150 149 133 89 109 115 121 111 104 106 106 108 108 109 103 100 99 101 100 99 102 99 91 88 87 83 77 72 66 63 62 60 54 52 54 57 59 55 38 29 31 58 63 62 62 63 65 66 64 63 63 61 60 61 60 59
191 170 155 165 173 169 161 162 165 160 153 142 221 187 187 191 185 173 165 169 170 170 173 175 170 174 172 173 168 156 155 134 141 139 145 136 134 131 130 130 129 127 129 119 119 123 119 114 108 100 93 91 90 86 85 81 77 72 68 64 62 58 57 53 55 56 52 41 23 24 53 60 63 64 65 67 68 64 61 59 58 58 58 57 56
124 189 187 172 178 177 189 167 177 161 154 171 205 195 198 203 197 178 170 177 174 169 170 163 173 177 174 173 169 168 155 154 157 155 151 148 149 150 145 141 140 138 139 131 133 130 124 116 108 102 95 89 84 81 78 79 78 73 70 63 62 62 60 57 59 61 56 44 21 21 39 62 62 63 64 65 65 64 62 60 58 58 60 58 56
189 204 187 183 173 182 189 192 185 164 158 194 219 204 213 220 214 187 180 184 181 170 167 172 183 180 174 174 177 172 165 166 166 161 161 157 159 154 147 144 147 145 144 136 134 132 126 116 106 100 100 96 91 84 78 75 75 77 73 67 63 67 66 62 60 62 59 52 32 16 38 56 64 64 66 68 68 67 65 64 62 58 58 60 58
195 206 201 196 191 194 186 195 192 185 192 206 219 204 208 238 230 180 186 169 176 180 179 183 184 180 175 178 187 170 174 176 174 165 171 167 160 155 149 149 152 145 144 138 135 131 123 117 112 107 108 103 98 92 85 80 76 75 76 71 70 69 67 66 64 61 65 62 48 19 40 49 59 63 66 64 67 66 65 62 62 59 56 59 61
208 209 203 206 203 200 202 217 215 214 213 213 223 216 194 208 240 189 202 163 185 184 189 188 188 185 181 177 182 176 176 184 179 171 168 169 161 157 155 151 152 147 143 140 135 134 128 123 125 123 114 110 103 97 96 86 82 77 78 76 73 71 70 70 69 67 72 73 57 31 28 59 61 65 60 63 62 64 64 63 60 58 56 55 57
211 205 199 208 205 197 211 224 228 230 231 230 226 224 208 209 227 215 205 178 189 189 173 187 192 189 185 180 181 183 181 179 187 175 164 166 164 156 167 160 154 152 148 143 137 132 128 128 125 120 119 114 105 104 102 92 79 76 77 79 73 74 75 73 71 74 77 78 71 53 34 41 61 68 67 64 61 59 60 61 60 59 59 59 59
202 208 203 204 194 191 211 218 222 224 235 239 236 229 219 218 219 228 207 188 199 194 189 184 196 193 186 187 189 189 182 183 182 178 174 166 161 161 171 164 155 148 143 133 121 111 120 127 128 127 124 115 106 102 100 97 89 81 79 77 76 80 77 72 72 74 79 79 84 77 55 46 46 58 62 61 63 59 60 61 61 60 60 61 62
199 204 200 193 191 202 207 212 218 218 225 232 238 235 225 221 219 218 213 202 193 205 201 191 190 192 183 185 187 195 190 176 176 170 171 164 167 165 161 168 141 130 134 136 132 133 124 119 113 110 112 112 108 100 96 98 92 86 82 80 78 78 74 75 75 72 71 75 80 78 76 64 52 49 52 64 66 64 63 60 61 61 61 58 58
202 201 192 186 197 198 210 211 214 220 225 230 232 233 229 229 223 212 209 202 194 196 202 194 189 192 182 177 180 191 191 184 173 171 167 170 165 160 157 164 149 144 138 130 116 114 111 111 110 111 109 108 102 97 95 97 96 91 85 80 78 71 69 75 76 72 72 72 71 72 73 70 70 58 50 51 59 62 61 62 60 58 57 54 53
192 190 189 196 193 193 197 209 214 219 224 230 231 230 224 224 218 209 199 195 188 196 195 189 175 177 183 184 172 169 179 170 178 174 174 163 163 165 159 150 147 132 126 133 130 128 119 116 118 113 111 111 106 100 103 101 98 93 85 78 74 72 74 73 68 66 67 67 64 62 61 62 63 67 62 48 44 52 57 60 60 57 56 54 53
193 192 195 195 193 193 193 205 202 215 216 224 222 224 221 221 205 200 204 195 182 180 189 180 173 179 167 164 178 168 167 163 176 173 173 166 160 159 167 160 159 146 136 142 135 126 128 130 132 121 117 108 105 101 98 96 99 93 87 83 79 79 78 76 69 66 66 66 65 62 59 60 60 59 66 72 51 44 50 52 54 57 56 55 52
203 196 191 190 196 197 191 206 198 208 213 216 215 218 217 206 179 149 197 201 188 165 186 183 174 173 172 158 174 174 173 167 172 175 167 169 152 138 115 120 140 138 143 138 137 134 134 131 136 137 127 123 114 107 99 95 95 90 85 82 81 79 80 74 69 70 65 70 70 68 66 63 60 58 52 68 69 52 47 50 49 48 52 55 53
200 197 192 190 197 194 194 203 201 201 206 193 200 206 182 167 155 153 200 197 176 164 164 199 161 169 165 162 167 176 172 170 171 167 159 150 142 135 145 132 132 148 150 147 146 140 139 124 109 75 124 126 111 111 101 95 94 89 84 81 78 81 79 75 77 78 73 77 81 82 80 75 66 55 65 64 67 67 51 48 48 43 39 49 54
200 199 197 193 195 191 193 198 197 200 201 195 175 171 159 121 107 126 181 194 155 136 149 176 184 175 169 162 165 165 161 165 148 146 141 140 138 138 140 146 146 141 153 131 128 121 127 133 126 89 111 125 120 122 113 103 96 96 86 79 76 74 76 78 81 88 89 90 87 86 85 83 73 67 65 65 63 59 55 47 44 45 37 37 43
196 197 196 195 193 191 191 189 194 195 183 167 139 124 120 106 105 138 150 160 141 129 128 173 176 192 175 163 163 156 154 150 154 144 137 139 139 144 139 148 147 149 144 147 127 117 117 124 126 111 78 101 122 121 119 112 102 95 89 79 73 73 73 76 87 87 91 87 87 87 87 84 79 69 67 65 63 57 51 45 39 40 37 32 37
193 193 195 194 194 189 189 183 186 181 168 164 161 160 151 163 161 133 162 181 156 149 155 151 151 185 199 169 165 157 153 149 150 154 145 157 149 152 147 152 154 151 150 152 145 139 132 125 124 123 114 92 93 114 119 115 104 97 93 83 76 75 75 81 82 86 91 88 94 94 92 97 87 76 68 66 60 56 52 45 41 38 35 35 36
195 194 194 196 194 189 183 185 176 172 173 170 175 169 170 163 174 186 182 168 162 145 159 158 158 179 238 183 169 157 148 147 145 137 152 152 150 146 146 158 159 153 157 162 148 147 143 138 128 129 131 126 123 131 127 124 122 109 97 95 88 78 81 80 85 81 82 89 90 95 98 99 91 79 68 65 60 57 54 47 44 38 30 23 31
199 195 196 193 190 189 188 183 170 177 182 180 176 183 184 181 171 188 151 158 157 170 175 179 158 156 212 178 165 160 156 152 152 143 144 143 136 145 152 154 159 152 157 143 126 120 123 130 130 114 124 135 141 152 148 134 136 144 139 131 113 106 95 95 86 77 76 77 77 83 92 88 87 83 81 74 67 64 59 54 45 38 31 28 25
197 197 195 189 187 188 191 188 183 178 186 182 177 184 182 176 184 159 162 146 109 97 115 117 141 167 186 175 158 178 160 150 155 155 146 153 151 150 155 159 155 147 142 148 140 134 146 147 150 142 138 135 139 159 161 174 148 148 135 132 151 146 148 126 101 76 70 68 81 79 75 80 75 79 84 86 83 73 66 56 49 39 32 28 29
197 193 193 192 189 191 190 185 180 181 185 180 180 169 127 100 69 107 102 121 149 117 109 99 82 130 182 182 169 178 169 168 165 153 159 158 163 159 152 157 163 159 146 146 153 155 159 161 152 144 141 143 163 175 186 217 170 152 164 201 169 170 153 178 149 98 75 60 64 87 82 90 90 93 98 93 91 82 77 68 53 46 34 29 27
198 195 192 191 191 191 188 184 178 180 181 174 170 133 127 116 105 97 107 97 96 141 147 159 163 164 164 182 183 172 176 179 173 161 152 165 178 156 158 153 160 164 154 151 158 165 170 168 159 151 162 157 162 172 191 212 200 205 179 134 148 206 206 143 141 131 157 143 68 68 82 101 115 104 103 103 106 104 95 76 62 49 38 33 27
202 200 194 194 188 186 185 182 177 176 176 181 167 157 161 155 152 158 169 174 171 180 189 180 171 178 192 150 107 144 185 195 185 168 150 158 180 167 144 152 160 161 160 159 156 161 171 174 170 161 166 170 161 166 179 204 236 227 285 316 339 267 147 156 167 163 130 71 122 117 113 104 115 123 121 128 133 120 97 83 66 56 42 31 25
204 192 194 193 190 188 186 183 178 175 178 176 168 167 167 173 179 180 172 179 175 188 185 171 169 168 157 152 151 149 169 195 221 180 146 153 165 168 159 163 165 159 161 159 167 172 174 175 168 169 171 165 167 171 177 179 187 248 248 275 299 303 140 146 195 120 166 170 193 170 167 181 170 152 149 141 139 136 117 106 88 70 51 33 23
192 187 190 190 192 190 185 182 179 181 176 168 175 183 178 178 186 184 177 183 188 176 178 171 156 136 147 152 143 142 144 193 198 183 134 147 162 164 160 157 158 166 167 179 177 177 170 170 173 174 171 176 176 178 171 173 183 189 184 202 184 146 156 312 154 172 154 160 177 171 176 193 200 196 174 157 152 139 136 126 112 91 74 49 25
189 190 190 190 191 192 190 186 187 180 171 170 177 188 188 181 185 189 183 189 184 165 158 132 135 146 144 136 148 145 161 163 185 161 156 156 161 163 160 165 168 159 180 183 176 175 174 169 175 176 177 178 185 183 171 177 196 181 163 168 156 149 158 48 157 135 153 155 160 177 176 174 214 196 188 173 157 150 149 136 116 133 101 57 36
188 189 186 187 190 190 191 187 188 177 172 177 182 186 192 181 191 193 180 171 148 123 147 150 147 154 158 162 158 165 167 162 164 173 157 162 155 150 162 175 176 176 182 181 170 169 171 174 180 181 178 179 192 188 183 178 193 167 186 157 155 144 146 161 191 180 135 188 169 183 176 173 186 184 179 182 176 171 172 158 170 179 187 68 26
187 188 186 188 188 189 190 191 189 177 175 184 187 191 194 193 196 196 196 182 156 152 156 161 158 161 167 168 167 174 168 162 158 171 157 162 160 159 177 184 182 179 180 171 174 176 176 176 174 177 183 188 191 185 193 186 183 170 182 176 172 174 176 184 185 186 183 167 152 164 167 185 186 160 187 176 173 184 181 190 201 193 194 194 16